Tracking 19794 objects as of 21-Jul-2019
HD Live streaming from Space Station
objects crossing your sky now

COSMOS 1181

Track COSMOS 1181 now!
10-day predictions
COSMOS 1181 is classified as:


NORAD ID: 11803
Int'l Code: 1980-039A
Perigee: 975.0 km
Apogee: 1,009.9 km
Inclination: 82.9 °
Period: 104.8 minutes
Semi major axis: 7363 km
RCS: 3.1344 m2 (large)
Launch date: May 20, 1980
Source: Commonwealth of Independent States (former USSR) (CIS)
Launch site: PLESETSK MISSILE AND SPACE COMPLEX (PKMTR)
aabbcc
Your satellite tracking list
Your tracking list is empty




NASA's NSSDC Master Catalog

Two Line Element Set (TLE):
1 11803U 80039A   19201.86387443 +.00000031 +00000-0 +16676-4 0  9993
2 11803 082.9449 281.9439 0023647 069.3761 067.7998 13.73982254963436
Source of the keplerian elements: AFSPC